Starlink 5137

operational
NORAD ID: 53975 Int'l Des: 2022-125 Owner: SPXS Country: US Constellation: starlink
LEOCIRCULAR

Starlink 5137について

説明を読み込み中...

リアルタイム位置

3D地球を読み込み中...

次回通過

高度履歴

Altitude vs Time

uPlot chart will show altitude changes over time

軌道要素

1 53975U 22125M 25258.05516756 .00000083 00000-0 23322-4 0 9995
2 53975 53.2165 287.1538 0001138 77.9506 282.1614 15.08835053162881
Epoch: Sep 15, 2025 • Age: 12 hours

現在のステータス

高度 558.7 km
速度 7.58 km/s
衛星直下点 -52.32°S, 19.6°W
打ち上げ日 Oct 5, 2022
運用期間 2.9 years
タイプ internet

技術仕様

分類 Payload
質量 305.00 kg
乾燥質量 290.00 kg
総質量 305.00 kg
長さ 0.20 m
直径 2.80 m
スパン 9.00 m
形状 Box + pan
製造者 SPXS
バスタイプ Starlink
フェーズステータス In Orbit
所有者/国 SPXS/US

大規模コンステレーション

Loading constellations...